EN

Hourly Weather Old Bridge

Today, 28 July, Wednesday

Time Temperature Precipitation Wind Pressure Humidity
00:00 +25°C° 0.1 mm 2 mps 759 mmHg 73%
01:00 +24°C° 0.1 mm 2 mps 759 mmHg 78%
02:00 +23°C° 0.1 mm 2 mps 759 mmHg 80%
03:00 +23°C° 0.1 mm 2 mps 759 mmHg 83%
04:00 +21°C° 0.1 mm 3 mps 759 mmHg 85%
05:00 +22°C° 0 mm 3 mps 759 mmHg 81%
06:00 +22°C° 0 mm 3 mps 759 mmHg 78%
07:00 +23°C° 0 mm 4 mps 760 mmHg 74%
08:00 +25°C° 0 mm 3 mps 760 mmHg 67%
09:00 +27°C° 0 mm 3 mps 760 mmHg 60%
10:00 +28°C° 0 mm 3 mps 761 mmHg 53%
11:00 +29°C° 0 mm 3 mps 760 mmHg 50%
12:00 +30°C° 0 mm 3 mps 760 mmHg 46%
13:00 +31°C° 0 mm 2 mps 760 mmHg 42%
14:00 +31°C° 0 mm 3 mps 760 mmHg 43%
15:00 +30°C° 0 mm 3 mps 760 mmHg 44%
16:00 +30°C° 0 mm 3 mps 760 mmHg 45%
17:00 +28°C° 0 mm 3 mps 760 mmHg 54%
18:00 +27°C° 0 mm 4 mps 760 mmHg 63%
19:00 +25°C° 0 mm 4 mps 760 mmHg 72%
20:00 +23°C° 0 mm 4 mps 761 mmHg 75%
21:00 +24°C° 0 mm 3 mps 761 mmHg 78%
22:00 +22°C° 0 mm 3 mps 761 mmHg 81%
23:00 +22°C° 0 mm 3 mps 761 mmHg 82%

Tomorrow, 29 July, Thursday

Time Temperature Precipitation Wind Pressure Humidity
00:00 +21°C° 0 mm 3 mps 761 mmHg 83%
01:00 +21°C° 0 mm 2 mps 761 mmHg 85%
02:00 +21°C° 0 mm 2 mps 761 mmHg 85%
03:00 +21°C° 0 mm 2 mps 761 mmHg 86%
04:00 +21°C° 0 mm 2 mps 761 mmHg 87%
05:00 +21°C° 0.1 mm 2 mps 761 mmHg 86%
06:00 +22°C° 0.1 mm 3 mps 761 mmHg 85%
07:00 +24°C° 0.1 mm 3 mps 761 mmHg 84%
08:00 +25°C° 0 mm 4 mps 761 mmHg 77%
09:00 +27°C° 0 mm 4 mps 760 mmHg 70%
10:00 +29°C° 0 mm 5 mps 760 mmHg 63%
11:00 +28°C° 0.7 mm 5 mps 759 mmHg 68%
12:00 +28°C° 0.7 mm 5 mps 759 mmHg 73%
13:00 +27°C° 0.7 mm 5 mps 759 mmHg 78%
14:00 +27°C° 1 mm 4 mps 758 mmHg 81%
15:00 +27°C° 1 mm 3 mps 758 mmHg 83%
16:00 +27°C° 1 mm 3 mps 758 mmHg 85%
17:00 +26°C° 1.6 mm 3 mps 757 mmHg 88%
18:00 +25°C° 1.6 mm 2 mps 757 mmHg 91%
19:00 +24°C° 1.6 mm 2 mps 756 mmHg 94%
20:00 +24°C° 0.4 mm 2 mps 756 mmHg 94%
21:00 +23°C° 0.4 mm 2 mps 756 mmHg 94%
22:00 +23°C° 0.4 mm 2 mps 756 mmHg 94%
23:00 +23°C° 0 mm 2 mps 756 mmHg 94%

Day after tomorrow, 30 July, Friday

Time Temperature Precipitation Wind Pressure Humidity
00:00 +21°C° 0 mm 2 mps 756 mmHg 94%
01:00 +21°C° 0 mm 3 mps 756 mmHg 94%
02:00 +21°C° 0 mm 3 mps 755 mmHg 95%
03:00 +20°C° 0 mm 3 mps 755 mmHg 95%
04:00 +20°C° 0 mm 3 mps 755 mmHg 95%
05:00 +21°C° 0 mm 3 mps 755 mmHg 93%
06:00 +22°C° 0 mm 3 mps 755 mmHg 90%
07:00 +22°C° 0 mm 3 mps 756 mmHg 87%
08:00 +25°C° 0 mm 4 mps 756 mmHg 77%
09:00 +26°C° 0 mm 5 mps 756 mmHg 67%
10:00 +28°C° 0 mm 5 mps 756 mmHg 57%
11:00 +29°C° 0 mm 5 mps 756 mmHg 52%
12:00 +29°C° 0 mm 5 mps 756 mmHg 47%
13:00 +30°C° 0 mm 5 mps 756 mmHg 42%
14:00 +30°C° 0 mm 6 mps 756 mmHg 40%
15:00 +30°C° 0 mm 6 mps 757 mmHg 38%
16:00 +30°C° 0 mm 6 mps 757 mmHg 36%
17:00 +28°C° 0 mm 6 mps 757 mmHg 39%
18:00 +26°C° 0 mm 5 mps 758 mmHg 42%
19:00 +23°C° 0 mm 5 mps 759 mmHg 45%
20:00 +22°C° 0 mm 5 mps 759 mmHg 47%
21:00 +20°C° 0 mm 4 mps 760 mmHg 50%
22:00 +19°C° 0 mm 4 mps 761 mmHg 52%
23:00 +18°C° 0 mm 3 mps 761 mmHg 54%

31 July, Saturday

Time Temperature Precipitation Wind Pressure Humidity
00:00 +17°C° 0 mm 3 mps 761 mmHg 57%
01:00 +17°C° 0 mm 3 mps 761 mmHg 59%
02:00 +16°C° 0 mm 2 mps 761 mmHg 59%
03:00 +16°C° 0 mm 2 mps 761 mmHg 60%
04:00 +15°C° 0 mm 2 mps 761 mmHg 61%
05:00 +16°C° 0 mm 2 mps 761 mmHg 59%
06:00 +17°C° 0 mm 2 mps 761 mmHg 57%
07:00 +18°C° 0 mm 2 mps 761 mmHg 55%
08:00 +20°C° 0 mm 2 mps 761 mmHg 50%
09:00 +23°C° 0 mm 2 mps 761 mmHg 44%
10:00 +25°C° 0 mm 2 mps 761 mmHg 39%
11:00 +26°C° 0 mm 2 mps 761 mmHg 37%
12:00 +27°C° 0 mm 3 mps 761 mmHg 35%
13:00 +28°C° 0 mm 3 mps 760 mmHg 32%
14:00 +28°C° 0 mm 3 mps 760 mmHg 33%
15:00 +28°C° 0 mm 3 mps 760 mmHg 34%
16:00 +29°C° 0 mm 3 mps 759 mmHg 35%
17:00 +27°C° 0 mm 3 mps 759 mmHg 41%
18:00 +26°C° 0 mm 3 mps 759 mmHg 47%
19:00 +24°C° 0 mm 2 mps 759 mmHg 53%
20:00 +23°C° 0 mm 2 mps 759 mmHg 56%
21:00 +21°C° 0 mm 2 mps 759 mmHg 58%
22:00 +20°C° 0 mm 2 mps 759 mmHg 61%
23:00 +20°C° 0 mm 3 mps 759 mmHg 62%

1 August, Sunday

Time Temperature Precipitation Wind Pressure Humidity
00:00 +20°C° 0 mm 3 mps 759 mmHg 62%
01:00 +19°C° 0 mm 3 mps 759 mmHg 63%
02:00 +19°C° 0 mm 3 mps 758 mmHg 66%
03:00 +19°C° 0 mm 3 mps 758 mmHg 70%
04:00 +18°C° 0 mm 3 mps 758 mmHg 73%
05:00 +19°C° 0 mm 3 mps 758 mmHg 73%
06:00 +20°C° 0 mm 3 mps 758 mmHg 74%
07:00 +21°C° 0 mm 3 mps 757 mmHg 74%
08:00 +24°C° 0.3 mm 3 mps 757 mmHg 72%
09:00 +26°C° 0.3 mm 4 mps 757 mmHg 69%
10:00 +28°C° 0.3 mm 4 mps 756 mmHg 66%
11:00 +28°C° 0.7 mm 4 mps 756 mmHg 65%
12:00 +28°C° 0.7 mm 4 mps 755 mmHg 64%
13:00 +29°C° 0.7 mm 4 mps 754 mmHg 62%
14:00 +29°C° 0.3 mm 5 mps 754 mmHg 62%
15:00 +29°C° 0.3 mm 6 mps 754 mmHg 61%
16:00 +28°C° 0.3 mm 7 mps 754 mmHg 60%
17:00 +27°C° 0.4 mm 6 mps 754 mmHg 69%
18:00 +25°C° 0.4 mm 4 mps 755 mmHg 78%
19:00 +22°C° 0.4 mm 3 mps 755 mmHg 87%
20:00 +21°C° 0 mm 3 mps 755 mmHg 83%
21:00 +20°C° 0 mm 4 mps 756 mmHg 78%
22:00 +19°C° 0 mm 4 mps 756 mmHg 74%
23:00 +18°C° 0 mm 4 mps 757 mmHg 73%

2 August, Monday

Time Temperature Precipitation Wind Pressure Humidity
00:00 +17°C° 0 mm 4 mps 757 mmHg 71%
01:00 +15°C° 0 mm 4 mps 758 mmHg 70%
02:00 +15°C° 0 mm 4 mps 758 mmHg 72%
03:00 +15°C° 0 mm 4 mps 758 mmHg 74%
04:00 +14°C° 0 mm 4 mps 759 mmHg 76%
05:00 +15°C° 0 mm 4 mps 759 mmHg 73%
06:00 +17°C° 0 mm 4 mps 760 mmHg 70%
07:00 +17°C° 0 mm 4 mps 760 mmHg 68%
08:00 +19°C° 0 mm 4 mps 760 mmHg 61%
09:00 +21°C° 0 mm 4 mps 760 mmHg 54%
10:00 +24°C° 0 mm 3 mps 761 mmHg 47%
11:00 +25°C° 0 mm 3 mps 761 mmHg 43%
12:00 +26°C° 0 mm 3 mps 760 mmHg 40%
13:00 +27°C° 0 mm 3 mps 760 mmHg 37%
14:00 +27°C° 0 mm 3 mps 760 mmHg 37%
15:00 +27°C° 0 mm 3 mps 760 mmHg 36%
16:00 +28°C° 0 mm 3 mps 760 mmHg 36%
17:00 +26°C° 0 mm 2 mps 760 mmHg 41%
18:00 +25°C° 0 mm 2 mps 761 mmHg 46%
19:00 +23°C° 0 mm 2 mps 761 mmHg 50%
20:00 +21°C° 0 mm 2 mps 761 mmHg 54%
21:00 +20°C° 0 mm 2 mps 762 mmHg 58%
22:00 +20°C° 0 mm 2 mps 762 mmHg 62%
23:00 +19°C° 0 mm 2 mps 762 mmHg 62%
Show more

We Need Your Consent

Meteoprog and our Service Providers may store and access personal data such as cookies, device identifiers or other similar technologies on your device and process such data to personalise content and ads, as well as provide social media features and to analyse the traffic.

  • Store and/or access information on your device

    Cookies, device identifiers or other information can be stored or accessed on your device for the purposes indicated above.

  • Personalised ads and content, ad and content measurement, audience insights, and products development

    Ads and content can be personalised based on a profile. More data can be added to better personalise ads and content. Ad and content performance can be measured. Insights about the audience who saw the ads and content can be derived. Such data can be used to develop or improve user’s experience, systems and software.

By clicking ‘I Agree’ you will allow the use of indicated cookies, device identifiers, web beacons or other similar technologies. Your settings can be changed in the browser on your device.

For certain purposes, legitimate interests may be relied on, rather than consent. You can read more about this in our Privacy and Cookie Policy.